Regional Weather Roundup
Issued by NWS State College, PA

Current Version | Previous Version | Text Only | Print | Product List | Glossary On
Versions: 1 2 3 4 5 6 7 8 9 10 11 12 13 14 15 16 17 18 19 20 21 22 23 24 25 26 27 28 29 30 31 32 33 34 35 36 37 38 39 40 41 42 43 44 45 46 47 48 49 50
859 ASUS41 KCTP 210010 RWRCTP REGIONAL WEATHER ROUNDUP NATIONAL WEATHER SERVICE STATE COLLEGE PA 800 PM EDT TUE APR 20 2021 Note: "fair" indicates few or no clouds below 12,000 feet with no significant weather and/or obstructions to visibility. * = STATION THAT DOES NOT REPORT PRECIPITATION /E.G. RAIN...SNOW...ETC/ THUNDER OR FOG. PAZ002>004-007>009-013>016-020>023-029>032-210100- WESTERN PENNSYLVANIA CITY SKY/WX TMP DP RH WIND PRES REMARKS ERIE CLOUDY 39 30 70 N8 29.98F MEADVILLE MOCLDY 35 25 66 N9 29.92F FRANKLIN MOCLDY 37 29 72 N7 29.92S NEW CASTLE FAIR 40 28 62 N10 N/A BEAVER COUNTY PTCLDY 43 33 65 N14G20 29.88S BUTLER PTCLDY 45 33 63 N9G16 29.87S PITTSBURGH INT MOCLDY 49 34 56 N14 29.85R PITTSBURGH PTCLDY 54 37 52 N8 29.81S INDIANA* PTCLDY 55 37 50 VRB7 29.86R LATROBE CLEAR 64 36 34 NW8G18 29.80F WASHINGTON CO* PTCLDY 54 38 54 N10 29.84R $$ PAZ004>006-010>012-017>019-024>028-033>037-041-042-045-046-049>053-210100- CENTRAL PENNSYLVANIA CITY SKY/WX TMP DP RH WIND PRES REMARKS BRADFORD MOCLDY 38 28 67 N6 29.90F ST MARYS PTCLDY 43 32 65 N6 29.91 DUBOIS PTCLDY 45 30 55 N13 29.84F CLEARFIELD PTCLDY 53 34 48 N10 29.84R JOHNSTOWN CLOUDY 59 32 36 W8 29.81F SOMERSET FAIR 57 32 38 W5 29.82S ALTOONA CLOUDY 64 34 32 SW5 29.80F STATE COLLEGE MOCLDY 64 36 34 CALM 29.81S REEDSVILLE N/A N/A N/A N/A MISG N/A WELLSBORO FAIR 45 30 57 N12 29.88S WILLIAMSPORT MOCLDY 60 38 43 N13G22 29.83R SELINSGROVE LGT RAIN 63 45 51 CALM 29.80S FT INDIANTOWN PTCLDY 66 41 41 S8 29.82S CAPITAL CITY PTCLDY 69 41 36 SE15 29.81R HARRISBURG PTCLDY 68 42 38 S16 29.81R YORK PTCLDY 66 42 41 S9G20 29.82R $$ PAZ038>040-043-044-047-048-054-055-060>062-067>071-210100- EASTERN PENNSYLVANIA CITY SKY/WX TMP DP RH WIND PRES REMARKS TOWANDA PTCLDY 48 34 57 NE9 29.95R SCRANTON LGT RAIN 60 41 49 N7 29.85R MOUNT POCONO CLOUDY 60 37 42 S7 29.85S HAZLETON FAIR 63 36 36 S6 29.87R LEHIGHTON MOCLDY 66 37 34 SW5 29.84S ALLENTOWN CLEAR 68 36 30 MISG 29.83S QN CITY/ALNTWN FAIR 68 36 30 S7G16 29.85S QUAKERTOWN* CLEAR 66 37 34 S6 29.86R PERKASIE* CLEAR 66 36 32 S3 29.87S DOYLESTOWN CLEAR 68 38 33 S8G21 29.86R READING CLEAR 67 40 37 S12 29.82S LANCASTER CLEAR 66 40 38 S13 29.84R COATESVILLE CLEAR 64 41 42 VRB7 29.88S WEST CHESTER CLEAR 66 41 39 S5 29.87S POTTSTOWN CLEAR 66 37 34 S6 29.87S BLUE BELL N/A N/A N/A N/A MISG N/A NORTH PHILA CLEAR 68 40 35 S9G17 29.89R PHILADELPHIA PTCLDY 67 43 41 S14 29.88S $$

USA.gov is the U.S. government's official web portal to all federal, state and local government web resources and services.